Location: Campillo
(40.8621°N, 4.2488°W)
Time: 12:51:58
(UTC+00:00)

Cosmos 1503 Rocket - Pass Details

Date: 11 May 2021
Orbit: 752 x 791 km, 74.0° (Epoch: 13 June)

Event Time Altitude Azimuth Distance (km) Brightness Sun altitude
Rises 20:40:35 0° 205° (SSW) 3,187 7.1 -13.1°
Reaches altitude 10° 20:42:57 10° 208° (SSW) 2,268 6.3 -13.5°
Maximum altitude 20:48:03 67° 291° (WNW) 817 4.4 -14.2°
Drops below altitude 10° 20:53:14 10° 14° (NNE) 2,299 6.8 -15.0°
Sets 20:55:39 0° 17° (NNE) 3,234 7.6 -15.3°
